Date,TemperatureHighF,TemperatureAvgF,TemperatureLowF,DewpointHighF,DewpointAvgF,DewpointLowF,HumidityHigh,HumidityAvg,HumidityLow,PressureMaxIn,PressureMinIn,WindSpeedMaxMPH,WindSpeedAvgMPH,GustSpeedMaxMPH,PrecipitationSumIn
2013-1-1,37.4,31.7,20.7,24.6,18.3,5.1,73,58,45,29.95,29.77,10,2,18,0.00
2013-1-2,27.1,20.9,13.1,11.9,8.4,5.0,72,58,45,30.09,29.93,8,1,15,0.00
2013-1-3,25.8,17.9,7.8,10.7,1.2,-8.2,69,49,24,30.14,30.02,8,1,27,0.00
2013-1-4,37.4,27.8,16.2,22.8,17.5,10.5,83,66,50,30.02,29.86,14,2,30,0.00
2013-1-5,42.0,31.8,23.6,22.1,18.5,13.8,76,59,33,30.26,29.90,8,2,139,0.00
2013-1-6,41.4,32.2,24.2,32.9,26.1,17.5,89,78,59,30.22,29.94,11,1,26,0.03
2013-1-7,41.7,30.7,21.3,28.4,20.9,14.4,87,69,39,30.40,29.98,9,0,21,0.00
2013-1-8,45.9,34.9,19.3,31.4,27.1,14.2,88,74,50,30.41,30.31,17,2,24,0.00
2013-1-9,44.0,36.4,24.0,36.6,30.8,20.6,89,80,66,30.38,30.06,13,1,28,0.00
2013-1-10,45.2,38.5,29.1,31.9,23.2,19.5,72,55,36,30.52,30.12,11,2,21,0.00
2013-1-11,41.4,33.6,25.6,38.7,27.3,19.5,90,78,65,30.50,30.18,10,0,26,0.16
2013-1-12,45.1,42.3,39.7,42.1,39.4,37.0,90,89,87,30.18,30.10,7,0,28,0.01
2013-1-13,50.8,45.2,40.9,47.1,42.2,37.9,90,89,86,30.16,30.03,7,0,13,0.00
2013-1-14,57.6,49.1,37.5,51.3,42.3,28.2,91,78,54,30.25,29.95,8,1,18,0.02
2013-1-15,39.7,36.2,34.3,32.5,30.2,26.6,89,79,65,30.31,30.20,5,0,20,0.16
2013-1-16,34.8,33.3,31.8,32.0,30.3,27.7,91,89,76,30.23,29.75,6,0,16,0.42
2013-1-17,41.7,35.3,31.6,31.3,27.3,18.9,90,74,55,30.08,29.86,8,1,17,0.00
2013-1-18,31.9,24.1,16.2,21.0,4.7,-7.8,74,45,22,30.48,29.99,11,2,22,0.00
2013-1-19,46.9,37.5,16.6,32.5,26.2,5.7,75,64,47,30.42,29.93,22,4,39,0.00
2013-1-20,53.2,42.7,28.3,35.3,26.2,8.5,77,54,25,29.95,29.62,13,4,37,0.00
2013-1-21,30.0,26.0,19.7,23.2,13.1,4.7,87,60,36,30.10,29.77,7,0,22,0.10
2013-1-22,25.3,19.0,8.2,21.7,3.8,-8.0,86,55,26,30.10,29.75,11,1,27,0.02
2013-1-23,18.1,10.4,4.4,-3.5,-7.3,-10.7,60,45,29,30.17,30.08,9,1,29,0.00
2013-1-24,20.2,10.0,-2.0,-3.2,-9.2,-12.8,69,44,24,30.26,30.09,15,2,27,0.00
2013-1-25,24.7,16.9,8.2,13.3,-2.4,-8.8,82,44,25,30.33,30.02,6,1,24,0.00
2013-1-26,26.3,16.8,6.7,12.7,3.2,-2.9,83,58,32,30.26,29.99,9,1,49,0.00
2013-1-27,31.1,18.7,6.2,4.9,0.3,-2.2,73,47,25,30.47,30.26,7,1,15,0.00
2013-1-28,33.7,25.9,15.0,29.6,14.5,-3.3,89,64,31,30.45,29.98,4,0,10,0.05
2013-1-29,38.2,33.7,30.2,32.0,29.5,26.8,89,85,76,30.18,29.98,2,0,7,0.00
2013-1-30,54.6,49.1,33.4,51.5,46.0,30.2,91,89,87,30.14,29.51,14,4,35,0.01
2013-1-31,55.8,46.4,30.6,52.9,32.7,6.6,90,62,30,29.64,29.07,20,7,60,0.74
2013-2-1,32.0,27.5,19.4,14.1,7.2,0.9,53,42,30,30.12,29.64,13,3,37,0.00
2013-2-2,29.3,23.8,13.8,19.2,9.5,3.5,77,55,38,30.26,30.04,10,2,36,0.00
2013-2-3,32.9,25.8,18.4,19.2,15.3,13.0,81,65,45,30.05,29.72,5,0,11,0.00
2013-2-4,31.4,23.7,15.4,13.4,7.0,1.2,79,51,30,29.96,29.74,10,2,27,0.00
2013-2-5,26.1,23.9,20.8,21.3,15.3,3.7,85,70,47,30.00,29.90,4,0,11,0.00
2013-2-6,38.7,30.8,25.6,25.3,17.2,-2.0,85,59,29,30.30,29.89,8,1,26,0.00
2013-2-7,32.7,24.8,16.3,13.0,6.0,-1.4,65,45,28,30.50,30.28,6,0,16,0.00
2013-2-8,32.4,30.0,23.0,30.0,26.0,11.8,92,85,61,30.43,29.39,15,2,31,1.98
2013-2-9,26.0,20.4,12.9,20.0,15.2,5.3,89,80,70,30.20,29.43,0,0,0,0.52
2013-2-10,35.3,20.1,6.4,21.1,10.9,-0.1,82,68,40,30.39,30.20,4,0,10,0.00
2013-2-11,45.5,34.1,15.5,43.3,31.1,10.9,92,89,81,30.35,29.62,18,2,29,0.66
2013-2-12,44.7,37.5,29.3,37.4,28.6,23.3,91,72,46,29.90,29.64,13,1,25,0.00
2013-2-13,41.8,32.9,24.3,25.6,22.7,18.2,81,67,45,29.89,29.65,5,0,25,0.00
2013-2-14,44.2,33.4,24.9,28.6,24.0,18.1,89,71,36,30.00,29.69,7,0,15,0.18
2013-2-15,47.7,37.4,28.4,36.2,31.7,24.7,90,81,61,30.03,29.93,9,1,30,0.00
2013-2-16,36.0,32.6,28.9,31.0,28.7,24.4,90,85,75,29.94,29.64,9,1,21,0.02
2013-2-17,28.9,22.7,15.9,24.4,9.3,-1.4,89,59,33,29.72,29.42,25,4,31,0.00
2013-2-18,31.0,22.1,14.8,5.1,-0.5,-6.0,52,38,21,30.18,29.73,16,4,45,0.00
2013-2-19,47.4,36.3,19.3,42.4,28.2,4.1,91,73,48,30.19,29.59,16,2,42,0.71
2013-2-20,39.9,32.0,24.4,36.9,17.2,5.2,89,56,35,29.83,29.58,12,3,43,0.00
2013-2-21,33.6,26.3,20.9,13.6,11.4,9.4,65,53,39,30.20,29.82,13,3,30,0.00
2013-2-22,40.0,30.4,21.0,24.0,19.7,13.6,77,65,47,30.35,30.20,7,1,22,0.00
2013-2-23,38.0,33.9,30.5,31.7,28.6,23.0,91,81,72,30.31,29.81,14,2,38,0.26
2013-2-24,39.6,35.5,31.6,35.8,32.4,28.4,91,88,80,29.87,29.63,11,2,36,0.18
2013-2-25,41.3,34.9,30.7,31.4,28.7,27.3,89,79,60,30.24,29.87,7,0,17,0.01
2013-2-26,42.0,35.8,31.7,31.6,27.9,22.3,87,74,50,30.32,30.08,12,1,27,0.00
2013-2-27,42.2,40.4,35.9,39.6,37.7,31.5,91,90,84,30.08,29.56,22,3,39,1.64
2013-2-28,45.9,38.6,34.6,38.7,35.0,31.9,91,87,72,29.63,29.52,5,0,15,0.03
2013-3-1,49.4,38.3,30.7,34.1,27.3,23.4,90,67,38,29.69,29.52,8,1,26,0.00
2013-3-2,39.0,35.4,28.9,26.3,24.6,22.4,79,65,55,29.70,29.62,8,0,14,0.00
2013-3-3,41.6,34.4,30.0,25.8,23.6,21.2,82,65,47,29.64,29.57,6,1,23,0.00
2013-3-4,41.5,33.0,27.5,24.8,19.9,18.1,81,59,43,29.74,29.61,19,3,37,0.00
2013-3-5,46.4,35.6,28.1,27.8,23.1,18.9,83,61,41,30.05,29.75,7,1,35,0.00
2013-3-6,42.0,36.3,28.9,33.2,30.6,24.3,89,80,62,30.02,29.88,19,4,40,0.00
2013-3-7,39.0,34.1,31.7,31.7,28.6,25.0,89,80,71,29.94,29.85,20,7,69,0.03
2013-3-8,38.9,33.3,30.1,30.2,25.9,19.2,88,75,46,30.07,29.87,18,5,44,0.05
2013-3-9,52.7,39.4,28.4,26.3,20.0,15.1,82,48,23,30.32,30.07,15,3,30,0.00
2013-3-10,48.6,35.0,25.8,31.8,27.3,22.5,88,75,45,30.38,30.31,8,1,31,0.00
2013-3-11,49.9,41.0,33.5,39.8,35.0,29.5,89,79,67,30.33,30.15,10,1,30,0.00
2013-3-12,51.7,48.7,42.3,49.2,45.0,39.3,91,87,82,30.15,29.74,18,5,35,0.85
2013-3-13,52.8,42.6,31.7,46.3,28.4,18.2,90,60,28,29.80,29.71,10,2,25,0.02
2013-3-14,35.9,30.6,26.1,24.8,16.1,6.7,80,57,30,29.85,29.73,11,2,31,0.00
2013-3-15,41.6,32.1,24.5,25.9,13.9,2.3,72,48,27,29.89,29.68,13,2,39,0.00
2013-3-16,41.4,34.0,27.0,25.3,17.1,5.2,71,52,22,29.86,29.70,8,1,13,0.00
2013-3-17,40.1,31.1,23.8,24.4,11.7,0.2,80,49,20,30.28,29.86,17,1,29,0.00
2013-3-18,36.6,28.4,18.4,27.4,10.5,-4.7,88,49,23,30.42,30.16,13,2,22,0.00
2013-3-19,38.9,34.4,30.5,35.9,31.4,27.3,90,89,86,30.15,29.55,18,2,36,0.96
2013-3-20,43.8,34.0,26.9,28.4,20.2,14.6,89,60,32,29.82,29.69,12,2,32,0.00
2013-3-21,41.8,33.2,26.7,28.5,22.7,17.9,84,66,45,29.82,29.58,11,1,23,0.00
2013-3-22,41.5,33.6,24.7,25.4,15.1,10.9,81,47,30,29.78,29.62,9,2,33,0.00
2013-3-23,46.0,35.7,27.3,22.6,17.2,10.9,71,49,27,29.83,29.68,16,3,40,0.00
2013-3-24,50.3,37.2,26.6,27.9,20.4,16.0,75,53,29,29.85,29.70,12,1,19,0.00
2013-3-25,44.3,36.1,28.2,31.5,26.3,21.7,88,69,41,29.75,29.44,13,2,39,0.07
2013-3-26,46.7,37.2,29.7,30.7,25.4,19.3,87,64,41,29.80,29.48,10,1,17,0.02
2013-3-27,55.3,40.6,26.2,26.5,20.5,16.4,72,48,22,29.85,29.75,11,1,31,0.00
2013-3-28,49.9,40.0,33.2,32.2,28.9,24.6,78,65,41,30.03,29.85,11,1,18,0.00
2013-3-29,60.2,45.4,32.4,33.0,27.5,20.9,84,54,23,30.06,29.97,8,1,40,0.00
2013-3-30,58.7,46.4,36.3,28.5,23.2,10.5,69,44,16,30.10,30.00,13,1,30,0.00
2013-3-31,57.3,43.0,27.5,41.8,29.8,19.0,89,62,31,30.12,29.68,15,2,31,0.23
2013-4-1,57.2,46.8,34.1,43.5,37.4,14.5,90,71,43,29.82,29.57,13,3,36,0.05
2013-4-2,45.2,34.5,25.6,18.1,10.8,2.7,72,39,20,29.98,29.82,18,2,44,0.00
2013-4-3,47.2,36.1,26.4,13.5,9.5,5.0,52,34,20,30.20,29.98,15,3,36,0.00
2013-4-4,49.6,37.8,26.5,31.4,18.5,9.2,77,48,21,30.33,30.10,13,2,23,0.00
2013-4-5,60.0,45.3,38.0,37.7,27.8,9.3,77,55,18,30.10,29.63,9,2,22,0.00
2013-4-6,50.3,39.7,31.0,23.7,13.9,1.0,71,39,14,30.33,29.88,12,2,28,0.00
2013-4-7,52.1,40.1,24.6,40.1,30.1,19.0,85,69,34,30.32,30.05,33,3,34,0.00
2013-4-8,67.2,52.3,42.6,43.8,39.3,33.2,88,65,29,30.10,29.97,8,1,19,0.00
2013-4-9,78.6,58.6,44.6,50.4,41.9,35.4,90,60,24,30.08,29.84,13,2,32,0.01
2013-4-10,68.0,51.2,44.5,48.2,42.8,39.5,87,74,47,30.03,29.84,10,1,27,0.20
2013-4-11,53.3,47.7,43.7,46.2,40.6,32.2,89,77,59,30.10,29.80,13,1,21,0.02
2013-4-12,43.7,40.8,38.2,36.4,33.0,26.5,90,75,53,30.11,29.71,15,3,35,0.76
2013-4-13,55.9,44.7,37.5,38.0,33.8,28.6,89,68,38,29.95,29.68,13,2,28,0.01
2013-4-14,55.8,45.7,34.5,38.5,30.3,21.3,85,58,31,30.21,29.93,14,1,25,0.00
2013-4-15,53.6,43.0,32.3,36.5,29.5,22.8,86,61,36,30.39,30.21,11,1,41,0.00
2013-4-16,58.2,47.7,32.8,46.5,39.8,29.7,89,75,54,30.41,30.14,13,3,39,0.00
2013-4-17,68.5,54.5,40.2,48.2,40.5,31.1,87,63,26,30.32,30.09,8,1,26,0.02
2013-4-18,60.6,48.1,33.8,45.3,34.8,27.5,89,64,29,30.39,30.15,14,2,24,0.00
2013-4-19,65.7,56.3,50.5,56.5,52.3,45.4,90,87,72,30.14,29.72,16,4,36,0.03
2013-4-20,58.7,51.6,42.4,55.8,40.2,25.5,90,68,29,30.21,29.65,13,2,44,0.57
2013-4-21,53.3,42.3,30.9,28.0,22.2,16.1,77,47,23,30.65,30.21,12,2,22,0.00
2013-4-22,53.5,42.0,29.1,33.0,28.6,24.6,87,62,34,30.69,30.53,20,2,37,0.00
2013-4-23,44.9,41.9,39.2,39.8,36.7,30.1,89,82,69,30.53,30.03,11,3,29,0.00
2013-4-24,66.7,50.8,42.2,46.0,40.5,37.0,90,70,36,30.02,29.88,11,4,40,0.00
2013-4-25,65.3,53.2,42.0,47.5,33.0,15.1,90,53,16,30.25,29.89,11,2,33,0.02
2013-4-26,62.3,49.8,37.1,39.7,31.1,20.4,85,51,31,30.39,30.25,13,1,29,0.00
2013-4-27,60.7,47.8,36.0,43.5,36.2,32.8,90,67,37,30.39,30.32,14,1,31,0.00
2013-4-28,63.6,50.0,33.9,42.9,32.9,13.1,89,59,18,30.34,30.25,9,1,29,0.00
2013-4-29,63.1,51.6,42.4,44.6,34.5,21.8,87,57,23,30.28,30.23,7,1,18,0.00
2013-4-30,65.4,52.4,38.3,39.6,29.2,19.5,85,47,19,30.35,30.24,11,1,21,0.00
2013-5-1,68.5,50.4,33.3,44.2,36.2,25.5,85,61,34,30.47,30.35,14,1,22,0.00
2013-5-2,70.6,55.2,36.2,43.7,36.3,31.0,89,55,24,30.46,30.34,9,1,26,0.00
2013-5-3,63.3,52.4,41.4,42.3,37.9,33.0,79,59,43,30.47,30.35,11,1,30,0.00
2013-5-4,65.7,50.5,38.0,41.6,35.6,27.4,86,61,27,30.36,30.25,11,1,22,0.00
2013-5-5,61.6,47.7,33.6,41.8,37.2,30.4,89,69,42,30.30,30.22,14,1,37,0.00
2013-5-6,67.9,53.3,43.7,46.2,41.3,37.1,87,66,43,30.28,30.16,8,1,26,0.00
2013-5-7,72.9,57.5,41.6,57.2,48.7,37.9,89,74,47,30.18,30.12,10,1,31,0.00
2013-5-8,67.5,59.1,51.9,59.1,53.9,48.2,88,83,72,30.16,30.04,13,2,47,0.03
2013-5-9,67.5,58.0,54.6,59.8,53.2,50.8,88,84,67,30.04,29.86,6,0,12,0.55
2013-5-10,78.9,64.4,54.9,57.8,51.9,47.3,88,67,37,29.97,29.91,11,1,24,0.00
2013-5-11,66.9,58.4,55.2,57.4,53.8,50.1,89,85,68,29.95,29.71,9,1,23,0.80
2013-5-12,69.6,59.3,48.0,57.4,48.6,34.0,89,70,34,29.84,29.61,8,1,24,0.03
2013-5-13,60.3,49.8,37.5,34.7,29.4,23.3,77,48,27,30.03,29.84,11,1,24,0.00
2013-5-14,56.9,46.3,32.8,34.4,29.6,24.5,80,55,30,30.08,29.99,7,0,12,0.00
2013-5-15,62.1,49.4,32.9,48.9,40.0,28.5,86,72,35,30.08,29.70,11,1,24,0.00
2013-5-16,76.6,61.1,46.0,51.1,45.1,40.7,87,60,28,29.81,29.69,12,1,33,0.00
2013-5-17,70.7,58.2,47.4,45.1,41.7,35.6,79,57,30,30.22,29.80,7,0,14,0.00
2013-5-18,71.4,56.4,40.8,49.0,42.9,35.7,86,64,29,30.32,30.22,6,1,19,0.00
2013-5-19,67.2,55.8,46.1,51.7,47.3,41.1,87,74,49,30.36,30.22,7,0,20,0.34
2013-5-20,75.5,63.3,55.5,63.2,56.8,51.7,88,80,62,30.22,29.96,10,0,21,0.11
2013-5-21,81.4,67.6,56.0,67.3,58.9,50.5,87,75,55,29.98,29.85,10,0,21,0.00
2013-5-22,77.3,60.8,52.3,62.6,53.7,47.9,85,78,57,29.97,29.88,5,0,13,0.00
2013-5-23,67.0,62.1,59.8,61.2,57.6,55.1,89,85,79,29.95,29.84,12,1,21,0.19
2013-5-24,68.3,60.3,49.1,62.0,55.5,44.5,89,84,74,29.84,29.69,9,0,14,0.73
2013-5-25,51.2,47.2,42.2,47.0,42.8,36.6,88,85,80,29.80,29.72,6,0,19,0.17
2013-5-26,59.7,49.5,41.6,43.3,39.6,36.4,87,70,46,30.15,29.78,11,1,21,0.03
2013-5-27,71.4,55.9,40.6,45.3,38.7,29.7,86,58,24,30.19,30.09,12,1,20,0.02
2013-5-28,72.6,56.9,42.0,51.9,45.3,37.0,86,68,34,30.23,30.17,3,0,8,0.01
2013-5-29,72.0,61.5,56.4,61.2,55.4,51.6,87,81,66,30.19,30.02,8,0,17,0.47
2013-5-30,86.4,72.3,57.8,70.3,60.9,53.3,87,69,46,30.11,30.03,7,0,25,0.03
2013-5-31,89.4,75.2,62.0,70.5,60.9,56.4,83,63,40,30.11,29.98,9,0,18,0.00
2013-6-1,84.2,71.3,61.3,66.9,60.1,55.5,83,69,47,30.02,29.93,12,0,20,0.00
2013-6-2,77.3,67.1,60.8,64.1,58.9,55.7,85,76,60,29.95,29.83,10,1,29,0.00
2013-6-3,63.8,62.0,60.7,59.7,57.4,56.2,88,85,82,29.86,29.83,5,0,25,0.11
2013-6-4,68.6,60.6,53.7,47.4,45.6,42.7,75,59,40,30.07,29.95,1,0,7,0.00
2013-6-5,71.9,60.0,49.1,51.1,45.1,37.8,81,61,32,30.20,30.07,5,0,13,0.00
2013-6-6,72.6,59.8,48.0,57.4,49.8,42.8,84,71,48,30.19,30.08,8,0,21,0.00
2013-6-7,59.0,57.4,55.3,54.8,52.8,48.9,90,85,75,30.08,29.73,12,1,22,4.49
2013-6-8,73.7,64.3,55.4,62.6,57.6,52.0,90,80,61,30.02,29.54,11,1,19,0.76
2013-6-9,77.4,66.5,55.9,59.8,54.8,51.4,85,68,43,30.18,30.02,4,0,16,0.00
2013-6-10,71.1,62.3,56.1,61.7,55.4,50.8,88,79,63,30.19,29.95,10,1,21,1.40
2013-6-11,77.5,66.0,58.6,66.4,60.5,54.7,89,83,63,29.95,29.58,9,1,24,1.22
2013-6-12,69.5,62.4,54.8,52.6,50.5,48.7,80,66,51,29.83,29.72,4,0,13,0.00
2013-6-13,60.9,56.0,49.6,55.7,51.1,44.7,89,84,79,29.83,29.55,7,0,22,0.47
2013-6-14,66.1,57.4,51.9,54.8,50.5,46.3,89,79,57,29.80,29.52,10,1,20,0.88
2013-6-15,78.5,65.3,52.5,55.3,49.5,39.5,87,61,27,29.97,29.80,3,0,24,0.00
2013-6-16,75.5,63.7,51.9,59.7,54.3,46.9,86,73,45,29.97,29.77,7,0,17,0.00
2013-6-17,82.0,69.3,59.1,64.6,59.1,54.3,85,71,47,29.93,29.82,10,1,15,0.01
2013-6-18,80.1,66.6,57.9,65.6,57.2,52.8,86,73,46,29.92,29.84,4,0,16,0.13
2013-6-19,76.0,63.7,55.0,56.3,52.6,46.3,85,69,35,30.16,29.86,6,0,15,0.03
2013-6-20,77.6,63.9,51.9,57.3,50.6,42.0,86,65,31,30.29,30.15,6,0,13,0.00
2013-6-21,77.8,66.3,56.2,61.1,53.2,49.7,85,65,43,30.29,30.24,8,0,14,0.00
2013-6-22,80.1,67.1,56.1,59.6,54.8,49.8,83,67,41,30.26,30.17,7,0,12,0.00
2013-6-23,83.2,72.2,62.7,65.7,62.0,57.5,84,72,49,30.20,30.08,8,1,17,0.00
2013-6-24,89.5,77.3,68.0,72.8,66.3,59.0,86,70,49,30.08,29.92,6,0,20,0.00
2013-6-25,89.3,74.9,64.4,68.7,63.2,58.4,82,68,43,29.97,29.77,6,0,13,0.00
2013-6-26,86.5,75.9,67.0,70.5,65.7,60.8,83,72,53,29.84,29.75,7,0,14,0.00
2013-6-27,74.1,70.1,67.2,66.1,64.0,61.9,85,81,76,29.84,29.72,5,0,13,0.01
2013-6-28,74.6,69.1,67.4,68.1,64.6,62.9,87,86,78,29.71,29.54,7,0,21,0.47
2013-6-29,76.8,70.2,67.9,67.0,64.5,63.3,87,83,67,29.76,29.51,6,0,13,0.04
2013-6-30,74.0,69.9,67.6,66.8,64.5,62.9,87,83,71,29.96,29.75,6,0,13,0.20
2013-7-1,73.8,70.5,68.4,68.6,65.8,64.0,87,85,81,30.11,29.96,5,0,16,0.04
2013-7-2,77.5,71.7,69.3,70.0,66.4,64.6,87,84,76,30.21,30.11,5,0,17,0.00
2013-7-3,83.7,74.7,68.7,71.6,67.3,64.0,87,78,63,30.25,30.19,9,0,22,0.00
2013-7-4,86.5,77.5,71.9,72.8,69.1,66.4,85,76,60,30.25,30.15,10,1,22,0.00
2013-7-5,88.3,78.6,71.7,74.0,68.7,65.7,84,73,52,30.20,30.09,6,0,16,0.00
2013-7-6,90.1,79.5,71.3,74.8,69.4,65.4,84,72,56,30.11,29.99,5,0,31,0.00
2013-7-7,91.0,79.9,71.1,75.3,68.8,65.3,84,70,49,30.04,29.93,4,0,17,0.00
2013-7-8,87.4,77.6,69.7,71.6,66.6,63.9,83,70,49,30.03,29.92,7,0,13,0.00
2013-7-9,82.3,72.7,68.6,69.6,65.7,62.5,84,79,61,30.09,30.01,4,0,5,0.05
2013-7-10,72.2,71.9,71.4,67.1,66.4,65.9,84,83,82,30.06,29.98,0,0,3,0.00
2013-7-12,69.4,68.1,67.1,60.9,59.9,58.6,80,75,71,30.15,30.09,2,0,8,0.00
2013-7-13,75.8,70.5,65.9,70.2,65.4,60.6,87,84,80,30.32,30.15,3,0,9,0.15
2013-7-14,87.8,78.0,70.7,75.0,69.4,66.1,86,76,57,30.31,30.21,4,0,13,0.00
2013-7-15,91.0,79.7,71.1,74.1,68.8,65.5,85,71,44,30.22,30.10,1,0,7,0.00
2013-7-16,91.8,79.7,70.3,71.5,67.4,64.4,83,68,42,30.15,30.09,2,0,7,0.00
2013-7-17,87.8,77.9,69.7,71.9,66.1,61.6,83,69,44,30.19,30.05,4,0,8,0.00
2013-7-18,94.7,82.0,72.0,73.7,68.9,65.8,82,67,41,30.05,29.95,3,0,7,0.00
2013-7-19,91.8,81.7,73.8,75.8,71.0,67.6,84,71,50,29.97,29.78,9,0,21,0.00
2013-7-20,88.8,80.7,73.3,72.5,69.8,66.0,82,70,52,29.82,29.69,10,1,18,0.00
2013-7-21,82.9,71.8,66.0,67.4,63.0,58.5,85,75,52,29.99,29.82,0,0,4,0.23
2013-7-22,80.6,72.7,66.8,67.9,64.7,61.1,85,77,60,29.99,29.86,11,0,13,0.01
2013-7-23,83.8,74.8,70.5,72.9,68.2,64.8,86,80,68,29.86,29.56,8,0,16,0.04
2013-7-24,85.1,74.6,68.3,71.8,66.4,61.1,84,76,55,29.89,29.59,3,0,8,1.00
2013-7-25,68.6,62.3,58.1,61.2,55.1,50.6,85,78,64,30.05,29.89,10,0,13,0.06
2013-7-26,70.5,64.1,59.4,63.6,58.9,54.8,87,84,77,30.04,29.93,4,0,10,0.14
2013-7-27,81.0,70.8,62.3,67.2,62.0,56.7,87,75,45,30.07,29.99,5,0,16,0.00
2013-7-28,82.5,72.2,66.6,69.5,64.5,61.2,85,77,59,30.01,29.95,6,0,10,0.01
2013-7-29,82.0,72.6,66.5,70.7,65.3,61.0,85,78,66,30.05,29.97,2,0,8,0.00
2013-7-30,81.6,69.8,58.4,60.8,56.8,53.2,84,66,40,30.11,30.04,4,0,12,0.00
2013-7-31,81.3,68.5,57.5,61.5,56.6,52.3,84,68,41,30.14,30.06,4,0,10,0.00
2013-8-1,80.0,68.5,61.2,64.8,59.1,55.3,83,73,46,30.06,29.89,2,0,9,0.06
2013-8-2,81.8,71.8,64.4,67.4,61.5,56.7,86,72,44,29.90,29.79,8,0,12,0.22
2013-8-3,75.3,68.1,63.2,64.8,61.1,57.2,84,79,65,29.90,29.81,8,0,11,0.02
2013-8-4,81.0,67.5,56.0,60.7,54.1,49.7,84,65,37,29.90,29.79,3,0,11,0.00
2013-8-5,76.4,64.0,52.2,54.0,47.9,41.1,83,60,30,30.05,29.90,4,0,9,0.00
2013-8-6,78.6,64.7,49.7,57.6,49.9,40.8,84,63,27,30.15,30.04,4,0,21,0.00
2013-8-7,77.6,65.5,52.5,62.6,52.9,42.0,87,67,29,30.20,30.13,4,0,11,0.00
2013-8-8,75.1,70.3,65.1,65.8,63.2,57.5,84,79,71,30.14,30.04,7,0,12,0.07
2013-8-9,72.5,71.3,69.7,68.7,66.8,64.8,88,86,83,30.06,29.80,12,1,20,0.96
2013-8-10,81.6,72.3,61.3,68.0,62.4,52.1,87,72,52,30.03,29.82,4,0,13,0.00
2013-8-11,78.7,66.0,52.8,57.8,52.0,46.8,81,63,36,30.11,30.03,7,0,11,0.00
2013-8-12,78.3,68.1,60.5,64.9,59.7,54.6,83,75,58,30.05,29.94,3,0,7,0.00
2013-8-13,70.1,65.3,61.2,64.7,60.1,56.0,86,84,82,29.95,29.71,3,0,9,0.14
2013-8-14,73.0,64.8,55.0,60.5,52.9,47.6,87,67,44,29.99,29.69,7,0,14,0.00
2013-8-15,76.6,63.1,51.0,56.3,49.6,42.3,84,65,32,30.14,29.99,5,0,12,0.00
2013-8-16,78.3,66.7,54.4,61.9,53.1,45.8,86,65,33,30.21,30.12,5,0,11,0.00
2013-8-17,81.4,66.8,55.1,59.6,53.9,48.7,85,67,33,30.28,30.21,3,0,7,0.00
2013-8-18,74.2,64.4,56.9,61.6,55.8,51.1,84,75,53,30.28,30.11,2,0,4,0.00
2013-8-19,79.6,67.8,56.4,63.5,57.4,51.3,85,71,47,30.11,29.99,3,0,23,0.01
2013-8-20,85.8,72.3,60.4,64.1,58.1,51.7,84,64,32,30.12,30.01,5,0,11,0.00
2013-8-21,87.4,73.0,61.8,66.9,59.6,55.8,84,66,37,30.16,30.06,5,0,27,0.00
2013-8-22,78.4,70.5,64.2,69.7,64.0,58.2,85,80,70,30.06,29.86,6,0,13,0.05
2013-8-23,81.4,70.3,61.6,62.8,58.8,53.3,85,69,40,30.11,29.84,4,0,19,0.00
2013-8-24,78.3,64.8,54.2,55.7,48.7,38.8,82,60,25,30.35,30.11,8,0,14,0.00
2013-8-25,82.1,65.8,50.6,60.9,49.6,42.0,85,61,27,30.37,30.22,6,0,16,0.00
2013-8-26,78.3,69.2,62.7,63.9,59.3,55.4,85,71,52,30.23,29.92,8,0,29,0.17
2013-8-27,79.2,70.5,65.9,68.9,64.6,60.9,87,82,69,29.91,29.82,4,0,10,1.25
2013-8-28,82.5,70.6,64.2,69.9,63.0,59.6,87,78,52,29.93,29.86,2,0,7,0.00
2013-8-29,71.6,65.3,59.4,63.2,59.3,53.9,87,81,72,30.05,29.92,9,0,13,0.00
2013-8-30,76.9,65.4,56.6,66.5,59.1,51.8,86,80,69,30.03,29.87,7,0,11,0.00
2013-8-31,74.8,71.0,66.7,67.4,65.5,62.0,87,83,78,29.88,29.83,7,0,16,0.00
2013-9-1,76.4,72.3,69.8,69.1,66.9,65.1,85,83,77,29.89,29.83,4,0,12,0.00
2013-9-2,74.7,71.7,68.6,69.4,66.9,63.9,87,85,81,29.88,29.73,2,0,9,0.94
2013-9-3,75.0,69.2,61.2,69.8,64.7,56.9,88,86,80,29.84,29.70,2,0,7,2.08
2013-9-4,77.6,65.3,55.5,61.5,56.5,51.7,89,75,45,29.95,29.84,5,0,13,0.00
2013-9-5,74.4,64.1,54.5,61.4,55.9,48.5,87,75,53,30.13,29.90,3,0,6,0.00
2013-9-6,70.2,56.3,45.2,48.4,44.7,38.6,84,67,37,30.24,30.13,6,0,10,0.00
2013-9-7,74.2,59.8,44.6,55.2,47.8,39.8,86,67,38,30.13,29.90,10,0,22,0.00
2013-9-8,77.9,65.9,52.7,61.5,52.2,37.8,85,63,38,30.09,29.78,5,0,11,0.00
2013-9-9,67.0,55.3,42.9,50.5,43.7,37.5,83,67,39,30.25,30.09,3,0,8,0.00
2013-9-10,72.0,64.9,54.1,64.8,58.6,47.5,86,80,75,30.19,30.05,9,0,19,0.01
2013-9-11,89.0,74.9,67.1,74.1,66.8,62.6,87,77,60,30.12,30.00,7,0,12,0.00
2013-9-12,76.9,71.1,67.6,68.5,65.3,62.8,86,82,74,30.02,29.70,9,1,16,0.35
2013-9-13,77.4,68.2,60.5,65.6,61.6,54.6,86,80,61,29.76,29.60,4,0,11,0.02
2013-9-14,70.1,59.0,50.6,54.6,49.9,45.4,86,73,50,30.07,29.77,4,0,7,0.00
2013-9-15,69.3,55.7,45.8,51.5,46.5,41.4,86,73,47,30.19,30.08,4,0,11,0.00
2013-9-16,66.7,57.2,49.8,55.0,50.3,39.3,85,78,61,30.22,30.03,3,0,8,0.02
2013-9-17,62.7,50.7,41.5,40.1,37.0,33.7,83,61,35,30.41,30.22,5,0,15,0.00
2013-9-18,71.0,53.4,39.5,48.9,41.3,34.7,86,67,32,30.35,30.18,3,0,8,0.00
2013-9-19,76.2,58.9,47.4,55.2,48.5,42.8,86,71,42,30.18,30.07,4,0,11,0.00
2013-9-20,76.6,60.0,46.3,57.3,50.8,41.3,87,73,41,30.11,30.03,2,0,8,0.00
2013-9-21,73.5,62.8,50.3,62.7,56.2,45.6,86,79,67,30.05,29.76,6,0,15,0.00
2013-9-22,70.2,62.9,47.8,63.8,55.0,41.6,87,76,54,29.85,29.65,10,0,16,0.61
2013-9-23,65.0,51.5,42.3,46.9,42.0,37.8,85,71,44,30.02,29.84,3,0,8,0.00
2013-9-24,65.9,50.6,37.3,48.2,41.0,32.9,87,72,41,30.03,29.83,5,0,13,0.00
2013-9-25,71.0,55.3,42.6,51.3,45.5,38.1,85,71,43,29.97,29.88,2,0,8,0.00
2013-9-26,65.7,56.0,48.7,49.1,46.2,43.4,83,71,46,30.12,29.97,3,0,8,0.00
2013-9-27,64.2,55.9,49.4,51.9,48.3,44.5,84,76,61,30.26,30.11,3,0,9,0.00
2013-9-28,73.2,56.7,45.3,54.5,47.9,41.4,87,74,44,30.32,30.25,13,0,13,0.00
2013-9-29,67.5,54.3,43.6,52.0,46.5,39.4,88,76,52,30.26,30.11,7,0,11,0.00
2013-9-30,69.0,57.3,49.7,52.4,48.4,42.0,89,74,40,30.11,29.97,2,0,10,0.00
2013-10-1,76.2,59.1,46.9,55.7,49.2,42.6,86,72,40,29.97,29.86,3,0,7,0.00
2013-10-2,78.6,64.0,52.7,60.5,54.5,48.3,86,73,47,29.99,29.86,8,0,14,0.00
2013-10-3,74.6,61.0,51.2,55.3,50.3,43.6,86,70,34,30.10,29.99,3,0,7,0.00
2013-10-4,73.9,59.8,51.7,62.1,52.5,46.3,85,77,60,30.08,30.02,3,0,13,0.00
2013-10-5,70.8,61.2,57.1,60.3,55.3,52.3,87,81,69,30.12,30.05,1,0,6,0.13
2013-10-6,61.1,59.1,56.4,56.0,54.3,51.9,87,84,80,30.18,30.10,7,0,25,0.08
2013-10-7,73.7,67.5,59.9,66.1,62.2,55.7,88,83,74,30.10,29.87,18,1,29,0.01
2013-10-8,63.1,56.6,51.8,57.7,47.8,43.6,83,72,63,30.08,29.91,1,0,6,0.00
2013-10-9,57.2,50.8,47.7,43.2,42.7,42.2,83,74,58,30.36,30.33,0,0,2,0.00
2013-10-10,64.4,55.4,47.3,53.3,48.4,41.8,84,77,66,30.33,30.13,4,0,11,0.00
2013-10-11,65.9,59.1,51.3,55.0,50.8,39.8,84,74,55,30.13,30.06,5,0,14,0.00
2013-10-12,68.0,57.1,50.3,53.4,48.3,41.7,82,73,56,30.34,30.11,11,0,26,0.00
2013-10-13,60.5,52.5,43.2,47.5,44.4,39.0,85,75,58,30.41,30.32,7,0,16,0.00
2013-10-14,62.1,48.2,36.8,47.0,41.1,33.0,88,77,54,30.41,30.27,2,0,11,0.00
2013-10-15,65.7,52.0,40.2,49.7,41.5,29.4,89,71,27,30.27,30.16,7,0,29,0.00
2013-10-16,65.0,55.4,47.6,54.4,49.3,43.3,88,80,68,30.16,29.92,5,0,15,0.00
2013-10-17,66.1,59.7,53.3,57.6,54.0,48.2,87,82,72,29.93,29.75,6,0,31,0.00
2013-10-18,67.2,59.3,45.6,58.6,49.3,39.8,87,71,44,29.94,29.65,7,0,21,0.06
2013-10-19,63.8,51.4,39.7,49.9,42.3,35.0,86,72,41,30.00,29.77,6,0,14,0.01
2013-10-20,61.2,52.7,40.5,52.5,39.1,28.0,87,64,29,30.05,29.71,8,0,13,0.00
2013-10-21,63.3,48.7,34.5,42.2,36.0,29.3,84,65,34,30.14,30.02,7,0,17,0.00
2013-10-22,66.2,53.1,41.0,51.0,43.7,36.1,84,72,44,30.02,29.72,8,0,13,0.00
2013-10-23,48.1,42.9,37.0,39.6,36.2,32.3,85,78,57,29.81,29.61,0,0,3,0.01
2013-10-24,52.4,41.1,33.4,36.2,28.0,20.4,88,63,29,29.93,29.68,16,0,18,0.01
2013-10-25,49.9,38.9,29.4,32.6,25.6,22.9,80,61,36,30.20,29.93,6,0,15,0.00
2013-10-26,53.5,42.2,26.4,38.3,29.2,21.1,84,62,35,30.20,29.90,12,2,28,0.00
2013-10-27,56.0,47.2,36.5,38.9,31.4,27.1,84,56,34,30.10,29.84,10,0,18,0.03
2013-10-28,58.2,42.7,28.4,35.3,29.8,23.3,86,63,37,30.34,30.10,8,0,21,0.00
2013-10-29,52.1,41.5,32.9,29.5,25.4,21.9,76,54,32,30.42,30.34,6,0,11,0.00
2013-10-30,58.0,45.1,32.5,43.8,35.8,25.5,83,71,52,30.37,30.20,6,0,11,0.00
2013-10-31,61.8,51.6,36.8,57.7,46.4,32.4,87,83,74,30.25,29.85,13,1,20,0.10
2013-11-1,66.1,61.7,56.7,60.2,56.0,51.0,88,82,74,29.84,29.55,15,4,34,0.06
2013-11-2,62.5,55.4,50.1,51.2,47.2,42.5,85,74,50,29.73,29.61,5,0,9,0.00
2013-11-3,50.0,42.7,31.5,43.0,31.8,14.3,84,66,41,30.39,29.72,8,0,13,0.00
2013-11-4,43.6,33.6,26.3,22.2,18.1,14.5,80,54,33,30.70,30.40,7,0,34,0.00
2013-11-5,48.5,37.1,25.7,32.0,27.4,20.4,83,69,44,30.70,30.53,6,0,10,0.00
2013-11-6,57.2,46.4,33.3,48.5,39.6,29.0,87,78,59,30.53,30.09,9,0,24,0.00
2013-11-7,61.3,53.9,34.8,57.2,49.8,30.8,89,86,80,30.09,29.69,12,1,19,0.64
2013-11-8,47.9,37.6,29.8,33.9,26.9,19.9,89,68,41,30.14,29.85,11,1,20,0.00
2013-11-9,45.0,36.3,26.2,34.3,24.4,18.5,83,64,35,30.25,30.05,8,0,14,0.00
2013-11-10,56.6,47.5,40.1,40.1,36.2,31.4,79,65,47,30.05,29.74,7,1,22,0.01
2013-11-11,50.7,44.8,36.8,38.2,29.3,23.6,67,55,37,30.13,29.92,11,2,22,0.00
2013-11-12,50.4,36.8,27.5,36.2,24.9,13.0,87,63,50,30.19,29.89,11,2,35,0.05
2013-11-13,36.3,28.0,21.3,15.0,11.6,7.2,70,51,31,30.29,30.19,9,1,18,0.00
2013-11-14,48.2,38.7,26.5,28.8,20.5,12.9,68,49,26,30.22,30.09,8,1,37,0.00
2013-11-15,56.2,44.0,33.6,39.5,31.7,20.3,86,64,25,30.24,30.17,7,0,21,0.00
2013-11-16,59.0,46.0,36.1,40.9,36.3,31.4,89,71,36,30.33,30.22,3,0,23,0.00
2013-11-17,59.4,50.1,33.6,56.4,46.1,30.4,90,87,74,30.31,29.86,8,1,22,0.20
2013-11-18,61.3,55.8,45.8,57.6,46.0,29.7,90,71,46,29.85,29.59,13,3,27,0.33
2013-11-19,46.2,39.7,30.9,32.6,21.7,16.5,70,49,32,30.28,29.69,9,2,43,0.00
2013-11-20,42.8,30.5,22.5,18.0,12.0,3.9,69,49,22,30.62,30.28,9,1,17,0.00
2013-11-21,46.7,34.0,20.2,30.1,20.0,9.5,74,59,23,30.63,30.40,4,0,11,0.00
2013-11-22,51.8,46.3,38.3,48.6,40.9,29.0,89,81,69,30.40,29.84,7,0,18,0.09
2013-11-23,48.9,40.5,29.6,45.4,25.8,11.6,88,58,28,29.92,29.82,11,2,30,0.00
2013-11-24,29.2,23.9,21.1,12.1,0.3,-10.2,53,36,20,30.22,29.84,16,4,48,0.00
2013-11-25,35.0,25.1,16.1,23.4,4.5,-7.8,67,42,21,30.41,30.23,10,1,23,0.00
2013-11-26,47.1,38.6,34.4,44.3,25.7,12.0,90,62,36,30.34,29.99,11,1,28,0.22
2013-11-27,59.8,51.1,35.3,56.9,47.8,29.6,90,88,79,29.98,29.23,23,4,47,2.33
2013-11-28,35.9,29.7,20.0,29.1,15.5,5.1,78,56,33,30.47,29.54,15,2,40,0.00
2013-11-29,35.3,26.9,19.2,17.2,14.6,10.6,73,60,40,30.73,30.46,6,0,13,0.00
2013-11-30,34.2,26.5,13.9,22.7,16.5,7.3,78,66,47,30.77,30.42,7,0,11,0.00
2013-12-1,49.1,43.1,28.9,45.8,37.9,22.3,90,82,72,30.42,30.00,8,1,23,0.42
2013-12-2,42.3,37.6,33.0,37.4,34.5,29.9,91,89,81,30.01,29.90,1,0,6,0.00
2013-12-3,50.1,38.0,30.2,37.8,31.6,26.7,92,79,47,29.98,29.84,4,0,13,0.00
2013-12-4,48.6,35.3,27.3,32.3,28.5,24.1,88,77,45,30.20,29.98,3,0,7,0.00
2013-12-5,53.7,47.2,31.9,50.7,43.9,27.9,90,88,85,30.19,29.96,12,0,24,0.01
2013-12-6,55.7,48.7,37.4,52.8,45.5,34.1,90,89,81,30.12,29.89,6,1,17,0.40
2013-12-7,39.8,34.0,26.4,35.3,28.0,20.2,90,79,59,30.47,30.04,6,1,17,0.36
2013-12-8,31.2,27.4,20.8,21.4,18.2,14.3,87,69,51,30.60,30.45,4,0,19,0.00
2013-12-9,40.5,34.5,27.1,38.3,31.7,21.2,92,90,72,30.46,29.91,8,1,20,0.32
2013-12-10,32.6,30.4,23.1,29.7,27.5,19.6,90,89,84,30.05,29.80,2,0,5,0.00
2013-12-11,32.6,25.5,20.0,23.0,19.3,16.1,88,78,62,30.28,30.05,8,0,30,0.00
2013-12-12,25.8,21.0,16.3,16.4,14.1,10.6,80,74,66,30.23,30.16,4,0,23,0.00